When you browse on this site, cookies collect data to enhance your experience and personalize the content and advertising you see.
Visit our Privacy Policy to learn more. By continuing to use the site, you agree to this use of cookies and data.
  • In Hungary
  • List of Countries
  • For 7 days
  • Water Temperature
  • Weather Map
  • News
  • Weather Widgets
  • user-avatar
    Login

    Hourly Weather Borzymy

    Today, 5 April, Sunday

    Time Temperature Precipitation Wind Pressure Humidity
    00:00 +1°C° 0 mm 2 mps 761 mmHg 78%
    01:00 +1°C° 0 mm 2 mps 761 mmHg 80%
    02:00 -1°C° 0 mm 2 mps 761 mmHg 82%
    03:00 +1°C° 0 mm 1 mps 762 mmHg 82%
    04:00 +1°C° 0 mm 1 mps 762 mmHg 83%
    05:00 +1°C° 0 mm 1 mps 762 mmHg 83%
    06:00 +2°C° 0 mm 1 mps 763 mmHg 78%
    07:00 +3°C° 0 mm 1 mps 763 mmHg 72%
    08:00 +4°C° 0 mm 1 mps 763 mmHg 66%
    09:00 +6°C° 0 mm 1 mps 764 mmHg 59%
    10:00 +7°C° 0 mm 2 mps 764 mmHg 51%
    11:00 +8°C° 0 mm 2 mps 764 mmHg 43%
    12:00 +9°C° 0 mm 2 mps 764 mmHg 41%
    13:00 +10°C° 0 mm 2 mps 764 mmHg 39%
    14:00 +12°C° 0 mm 2 mps 764 mmHg 37%
    15:00 +12°C° 0 mm 1 mps 764 mmHg 37%
    16:00 +12°C° 0 mm 1 mps 764 mmHg 38%
    17:00 +12°C° 0 mm 1 mps 764 mmHg 38%
    18:00 +10°C° 0 mm 1 mps 764 mmHg 43%
    19:00 +9°C° 0 mm 1 mps 764 mmHg 49%
    20:00 +7°C° 0 mm 1 mps 764 mmHg 54%
    21:00 +7°C° 0 mm 1 mps 764 mmHg 55%
    22:00 +6°C° 0 mm 1 mps 764 mmHg 57%
    23:00 +5°C° 0 mm 2 mps 764 mmHg 59%

    Tomorrow, 6 April, Monday

    Time Temperature Precipitation Wind Pressure Humidity
    00:00 +4°C° 0 mm 2 mps 764 mmHg 60%
    01:00 +4°C° 0 mm 2 mps 764 mmHg 62%
    02:00 +3°C° 0 mm 2 mps 764 mmHg 63%
    03:00 +3°C° 0 mm 2 mps 764 mmHg 64%
    04:00 +3°C° 0 mm 2 mps 764 mmHg 65%
    05:00 +2°C° 0 mm 2 mps 764 mmHg 66%
    06:00 +3°C° 0 mm 2 mps 764 mmHg 64%
    07:00 +4°C° 0 mm 2 mps 764 mmHg 61%
    08:00 +4°C° 0 mm 3 mps 765 mmHg 59%
    09:00 +7°C° 0 mm 3 mps 765 mmHg 54%
    10:00 +9°C° 0 mm 3 mps 765 mmHg 48%
    11:00 +11°C° 0 mm 3 mps 765 mmHg 43%
    12:00 +12°C° 0 mm 4 mps 764 mmHg 41%
    13:00 +13°C° 0 mm 4 mps 764 mmHg 39%
    14:00 +14°C° 0 mm 4 mps 764 mmHg 38%
    15:00 +14°C° 0 mm 4 mps 764 mmHg 39%
    16:00 +14°C° 0 mm 4 mps 763 mmHg 40%
    17:00 +14°C° 0 mm 4 mps 763 mmHg 41%
    18:00 +12°C° 0 mm 3 mps 763 mmHg 47%
    19:00 +10°C° 0 mm 3 mps 763 mmHg 53%
    20:00 +8°C° 0 mm 3 mps 763 mmHg 59%
    21:00 +8°C° 0 mm 3 mps 763 mmHg 60%
    22:00 +7°C° 0 mm 3 mps 763 mmHg 61%
    23:00 +7°C° 0 mm 3 mps 763 mmHg 62%

    Day after tomorrow, 7 April, Tuesday

    Time Temperature Precipitation Wind Pressure Humidity
    00:00 +5°C° 0 mm 3 mps 763 mmHg 63%
    01:00 +5°C° 0 mm 3 mps 763 mmHg 65%
    02:00 +4°C° 0 mm 3 mps 763 mmHg 66%
    03:00 +4°C° 0 mm 3 mps 763 mmHg 67%
    04:00 +4°C° 0 mm 3 mps 763 mmHg 68%
    05:00 +3°C° 0 mm 3 mps 763 mmHg 69%
    06:00 +4°C° 0 mm 4 mps 763 mmHg 67%
    07:00 +5°C° 0 mm 4 mps 763 mmHg 65%
    08:00 +7°C° 0 mm 4 mps 763 mmHg 63%
    09:00 +8°C° 0 mm 5 mps 762 mmHg 59%
    10:00 +10°C° 0 mm 5 mps 762 mmHg 54%
    11:00 +13°C° 0 mm 5 mps 762 mmHg 50%
    12:00 +14°C° 0 mm 5 mps 762 mmHg 47%
    13:00 +16°C° 0 mm 6 mps 762 mmHg 43%
    14:00 +17°C° 0 mm 6 mps 762 mmHg 40%
    15:00 +17°C° 0 mm 6 mps 761 mmHg 41%
    16:00 +16°C° 0 mm 5 mps 761 mmHg 42%
    17:00 +16°C° 0 mm 5 mps 761 mmHg 42%
    18:00 +14°C° 0 mm 4 mps 761 mmHg 49%
    19:00 +13°C° 0 mm 4 mps 761 mmHg 55%
    20:00 +11°C° 0 mm 3 mps 761 mmHg 62%
    21:00 +10°C° 0 mm 3 mps 761 mmHg 65%
    22:00 +10°C° 0 mm 3 mps 761 mmHg 68%
    23:00 +9°C° 0 mm 2 mps 761 mmHg 71%

    8 April, Wednesday

    Time Temperature Precipitation Wind Pressure Humidity
    00:00 +8°C° 0 mm 2 mps 761 mmHg 76%
    01:00 +8°C° 0 mm 2 mps 761 mmHg 81%
    02:00 +7°C° 0 mm 2 mps 761 mmHg 86%
    03:00 +7°C° 0 mm 2 mps 761 mmHg 89%
    04:00 +7°C° 0 mm 2 mps 761 mmHg 91%
    05:00 +7°C° 0 mm 1 mps 761 mmHg 94%
    06:00 +8°C° 0 mm 1 mps 761 mmHg 89%
    07:00 +9°C° 0 mm 1 mps 761 mmHg 85%
    08:00 +10°C° 0 mm 1 mps 761 mmHg 80%
    09:00 +12°C° 0 mm 1 mps 761 mmHg 71%
    10:00 +14°C° 0 mm 1 mps 761 mmHg 61%
    11:00 +15°C° 0 mm 1 mps 760 mmHg 52%
    12:00 +16°C° 0 mm 1 mps 760 mmHg 49%
    13:00 +17°C° 0 mm 2 mps 760 mmHg 45%
    14:00 +18°C° 0 mm 2 mps 759 mmHg 42%
    15:00 +18°C° 0 mm 2 mps 759 mmHg 43%
    16:00 +18°C° 0 mm 2 mps 758 mmHg 44%
    17:00 +18°C° 0 mm 2 mps 758 mmHg 45%
    18:00 +16°C° 0 mm 2 mps 758 mmHg 51%
    19:00 +14°C° 0 mm 2 mps 757 mmHg 57%
    20:00 +12°C° 0 mm 1 mps 757 mmHg 63%
    21:00 +11°C° 0 mm 1 mps 757 mmHg 67%
    22:00 +11°C° 0 mm 1 mps 756 mmHg 70%
    23:00 +9°C° 0 mm 0 mps 756 mmHg 73%

    9 April, Thursday

    Time Temperature Precipitation Wind Pressure Humidity
    00:00 +10°C° 0 mm 1 mps 756 mmHg 73%
    01:00 +9°C° 0 mm 1 mps 755 mmHg 73%
    02:00 +8°C° 0 mm 2 mps 755 mmHg 73%
    03:00 +8°C° 0 mm 2 mps 754 mmHg 74%
    04:00 +9°C° 0 mm 2 mps 754 mmHg 75%
    05:00 +9°C° 0 mm 2 mps 754 mmHg 76%
    06:00 +9°C° 0 mm 3 mps 753 mmHg 74%
    07:00 +9°C° 0 mm 3 mps 753 mmHg 72%
    08:00 +10°C° 0 mm 4 mps 753 mmHg 70%
    09:00 +10°C° 0 mm 5 mps 753 mmHg 63%
    10:00 +12°C° 0 mm 5 mps 753 mmHg 56%
    11:00 +13°C° 0 mm 6 mps 753 mmHg 49%
    12:00 +13°C° 0 mm 6 mps 752 mmHg 51%
    13:00 +13°C° 0 mm 6 mps 752 mmHg 54%
    14:00 +12°C° 0 mm 7 mps 752 mmHg 56%
    15:00 +11°C° 0 mm 7 mps 752 mmHg 56%
    16:00 +10°C° 0 mm 7 mps 752 mmHg 56%
    17:00 +9°C° 0 mm 6 mps 752 mmHg 56%
    18:00 +8°C° 0 mm 6 mps 752 mmHg 59%
    19:00 +6°C° 0 mm 5 mps 752 mmHg 62%
    20:00 +4°C° 0 mm 4 mps 752 mmHg 65%
    21:00 +4°C° 0 mm 4 mps 753 mmHg 69%
    22:00 +3°C° 0 mm 4 mps 753 mmHg 73%
    23:00 +1°C° 0 mm 4 mps 753 mmHg 77%

    10 April, Friday

    Time Temperature Precipitation Wind Pressure Humidity
    00:00 +1°C° 0 mm 4 mps 753 mmHg 78%
    01:00 +1°C° 0 mm 4 mps 753 mmHg 80%
    02:00 +1°C° 0 mm 3 mps 754 mmHg 82%
    03:00 +1°C° 0 mm 3 mps 754 mmHg 86%
    04:00 0°C° 0 mm 3 mps 754 mmHg 89%
    05:00 +1°C° 0 mm 2 mps 754 mmHg 93%
    06:00 +2°C° 0 mm 2 mps 755 mmHg 89%
    07:00 +3°C° 0 mm 2 mps 755 mmHg 84%
    08:00 +4°C° 0 mm 2 mps 756 mmHg 79%
    09:00 +5°C° 0 mm 3 mps 756 mmHg 69%
    10:00 +7°C° 0 mm 3 mps 756 mmHg 58%
    11:00 +8°C° 0 mm 4 mps 756 mmHg 47%
    12:00 +8°C° 0 mm 4 mps 756 mmHg 46%
    13:00 +8°C° 0 mm 4 mps 756 mmHg 44%
    14:00 +9°C° 0 mm 5 mps 756 mmHg 43%
    15:00 +9°C° 0 mm 5 mps 756 mmHg 43%
    16:00 +8°C° 0 mm 5 mps 756 mmHg 43%
    17:00 +8°C° 0 mm 5 mps 756 mmHg 43%
    18:00 +6°C° 0 mm 4 mps 756 mmHg 49%
    19:00 +5°C° 0 mm 4 mps 756 mmHg 54%
    20:00 +3°C° 0 mm 3 mps 756 mmHg 60%
    21:00 +2°C° 0 mm 3 mps 756 mmHg 62%
    22:00 +2°C° 0 mm 2 mps 756 mmHg 63%
    23:00 +1°C° 0 mm 2 mps 756 mmHg 65%
    Show more